Location: Albany
(35.0000°S, 118.0000°E)
Time: 17:25:12
(UTC-04:00)

JAS-1B - Visible Passes

Search period start: 21 September 2017 00:00
Search period end: 01 October 2017 00:00
Orbit: 911 x 1744 km, 99.1° (Epoch: 20 September)

Date Brightness Start Highest point End Pass type
(mag) Time Alt. Az. Time Alt. Az. Time Alt. Az.
21 Sep 10.0 11:58:10 10° SE 11:59:50 14° SE 11:59:50 14° SE visible
21 Sep 8.8 13:46:34 10° SSE 13:52:06 44° S 13:52:06 44° S visible
21 Sep 9.4 15:39:16 10° SSW 15:44:23 19° SW 15:44:23 19° SW visible
22 Sep 9.8 12:16:15 10° SE 12:19:23 20° SE 12:19:23 20° SE visible
22 Sep 8.7 14:05:41 10° S 14:11:39 46° S 14:11:39 46° S visible
22 Sep 9.6 15:59:29 10° SSW 16:03:47 14° SW 16:03:56 14° WSW visible
23 Sep 9.5 12:34:42 10° SSE 12:38:56 27° SE 12:38:56 27° SE visible
23 Sep 8.7 14:24:54 10° S 14:31:13 43° SSW 14:31:13 43° SSW visible
24 Sep 9.2 12:53:22 10° SSE 12:58:29 34° SE 12:58:29 34° SE visible
24 Sep 8.8 14:44:12 10° S 14:50:45 37° SW 14:50:45 37° SW visible
25 Sep 8.9 13:12:11 10° SSE 13:18:01 43° SE 13:18:01 43° SE visible
25 Sep 9.0 15:03:39 10° S 15:10:18 30° SW 15:10:18 30° SW visible
26 Sep 10.1 11:43:33 10° SE 11:45:18 13° ESE 11:45:18 13° ESE visible
26 Sep 8.7 13:31:09 10° SSE 13:37:34 51° SSE 13:37:34 51° SSE visible
26 Sep 9.2 15:23:16 10° SSW 15:29:51 24° WSW 15:29:51 24° WSW visible
27 Sep 9.8 12:01:21 10° SE 12:04:50 19° ESE 12:04:50 19° ESE visible
27 Sep 8.5 13:50:12 10° S 13:57:07 55° S 13:57:07 55° S visible
27 Sep 9.4 15:43:09 10° SSW 15:48:49 18° WSW 15:49:23 18° WSW visible
28 Sep 9.6 12:19:39 10° SSE 12:24:23 26° ESE 12:24:23 26° ESE visible
28 Sep 8.5 14:09:22 10° S 14:16:40 52° SSW 14:16:40 52° SSW visible
28 Sep 9.7 16:03:36 10° SSW 16:07:23 13° SW 16:08:56 13° WSW visible
29 Sep 9.2 12:38:12 10° SSE 12:43:55 34° SE 12:43:55 34° SE visible
29 Sep 8.6 14:28:37 10° S 14:36:12 45° SW 14:36:12 45° SW visible
30 Sep 8.9 12:56:57 10° SSE 13:03:28 44° SE 13:03:28 44° SE visible
30 Sep 8.8 14:48:01 10° S 14:55:44 36° SW 14:55:44 36° SW visible
